Date,TemperatureHighF,TemperatureAvgF,TemperatureLowF,DewpointHighF,DewpointAvgF,DewpointLowF,HumidityHigh,HumidityAvg,HumidityLow,PressureMaxIn,PressureMinIn,WindSpeedMaxMPH,WindSpeedAvgMPH,GustSpeedMaxMPH,PrecipitationSumIn
2013-1-6,38,33,21,33,27,18,90,80,69,30.33,30.01,10,4,22,0.00
2013-1-7,39,27,17,28,22,14,92,82,64,30.41,30.15,5,1,14,0.00
2013-1-8,48,39,26,35,33,22,91,78,59,30.21,30.10,7,0,16,0.00
2013-1-9,45,42,38,36,35,33,82,74,66,30.17,30.13,9,1,9,0.00
2013-1-10,59,48,39,58,45,35,96,92,81,30.38,29.80,2,0,12,0.00
2013-1-11,60,56,48,59,52,44,96,85,70,29.86,29.77,9,5,27,0.00
2013-1-12,67,61,50,63,59,48,96,93,86,29.88,29.56,23,5,26,1.51
2013-1-13,50,34,25,48,31,20,95,91,83,30.23,29.66,19,3,20,1.24
2013-1-14,26,24,20,21,19,15,86,81,76,30.39,30.23,0,0,0,0.00
2013-1-15,30,27,22,26,22,19,88,82,76,30.29,30.01,0,0,0,0.00
2013-1-16,34,31,29,27,25,22,87,79,65,30.06,29.97,10,0,10,0.01
2013-1-17,44,34,25,36,27,22,88,77,59,30.40,30.05,20,3,20,0.00
2013-1-18,45,34,21,30,25,18,92,70,54,30.47,30.16,20,4,20,0.01
2013-1-19,56,46,39,38,32,26,73,57,43,30.16,29.88,29,8,33,0.00
2013-1-20,46,34,25,38,22,13,79,63,40,30.23,29.98,13,3,14,0.00
2013-1-21,28,24,16,18,9,-1,74,54,35,30.28,30.14,25,8,26,0.00
2013-1-22,22,18,14,9,2,-3,67,50,38,30.40,30.28,13,2,14,0.00
2013-1-23,40,26,14,22,14,8,86,63,41,30.32,30.06,19,2,19,0.00
2013-1-24,31,24,18,21,10,4,67,54,37,30.51,30.17,20,4,23,0.00
2013-1-25,36,30,25,23,16,4,72,58,38,30.22,30.03,5,1,15,0.00
2013-1-26,37,30,23,24,18,17,86,64,46,30.30,30.13,9,1,10,0.00
2013-1-27,39,30,22,37,26,18,95,87,81,30.28,30.06,15,1,19,0.16
2013-1-28,58,57,46,56,54,42,95,90,74,30.00,29.91,16,6,24,0.12
2013-1-29,68,61,53,61,56,50,92,84,68,29.91,29.32,31,9,35,0.08
2013-1-30,56,45,30,52,40,20,96,84,64,29.78,29.27,30,8,34,0.32
2013-1-31,37,29,17,30,20,8,91,67,55,30.21,29.78,26,7,31,0.62
2013-2-1,25,17,9,16,7,0,78,63,51,30.46,30.21,22,4,24,0.01
2013-2-2,40,32,25,27,21,14,83,66,54,30.24,29.97,16,3,19,0.10
2013-2-3,32,28,21,28,23,17,91,81,62,30.10,29.91,20,2,24,0.01
2013-2-4,44,35,21,38,29,18,90,81,63,30.03,29.74,20,4,21,0.09
2013-2-5,53,38,25,38,31,23,92,78,50,30.00,29.81,18,2,18,0.00
2013-2-6,47,35,25,33,29,22,93,78,55,30.18,30.00,11,0,11,0.01
2013-2-7,65,49,31,52,41,28,93,75,50,30.03,29.75,16,3,18,0.13
2013-2-8,45,36,33,42,31,26,91,80,73,30.30,29.82,21,6,25,0.00
2013-2-9,46,37,28,33,29,24,87,73,54,30.31,30.02,15,2,19,0.00
2013-2-10,55,48,40,51,43,31,93,84,65,30.03,29.63,26,5,28,0.44
2013-2-11,55,45,33,50,30,25,85,58,38,30.05,29.71,24,5,26,0.00
2013-2-12,48,38,27,34,30,24,90,73,53,30.08,29.80,7,0,7,0.00
2013-2-13,46,39,33,36,33,30,93,80,60,29.83,29.75,12,2,13,0.12
2013-2-14,38,38,37,35,35,34,92,90,88,29.83,29.80,14,5,14,0.00
2013-2-16,35,27,21,21,17,11,84,66,42,30.14,30.08,9,4,21,0.00
2013-2-17,42,30,18,24,18,13,85,65,36,30.19,30.00,4,2,14,0.00
2013-2-18,61,45,32,46,35,23,92,68,34,29.99,29.58,36,9,42,0.59
2013-2-19,40,34,26,37,22,16,90,64,45,30.17,29.71,28,9,32,0.01
2013-2-21,33,28,19,31,22,15,93,79,60,30.24,29.76,4,1,18,0.25
2013-2-22,43,37,32,36,32,25,96,84,71,29.98,29.74,7,4,23,0.20
2013-2-23,41,28,23,27,22,20,90,78,54,29.97,29.88,4,0,15,0.00
2013-2-24,47,33,20,31,25,18,91,75,48,30.08,29.93,8,0,8,0.00
2013-2-25,52,41,27,33,27,24,89,61,40,29.99,29.49,19,1,19,0.00
2013-2-26,49,43,39,46,39,26,95,85,47,29.51,29.27,20,3,25,0.56
2013-2-27,40,36,33,36,30,28,89,80,64,29.77,29.51,21,5,23,0.03
2013-2-28,36,34,32,32,30,28,92,85,80,29.98,29.76,18,6,19,0.02
2013-3-1,37,34,32,34,31,29,94,91,84,30.01,29.93,14,3,14,0.14
2013-3-2,34,30,27,30,25,19,92,82,68,30.10,29.99,15,6,16,0.02
2013-3-3,39,29,20,23,19,15,85,67,40,30.11,30.01,14,2,15,0.00
2013-3-4,50,40,28,34,28,21,85,62,46,30.03,29.72,20,2,24,0.00
2013-3-5,47,39,32,42,34,23,93,82,65,29.88,29.65,35,8,40,0.07
2013-3-6,34,32,30,28,26,23,80,76,71,30.26,29.87,25,8,31,0.00
2013-3-7,38,32,26,28,26,24,90,76,64,30.34,30.25,9,0,11,0.00
2013-3-8,52,38,24,33,28,22,93,71,40,30.38,30.19,9,0,11,0.00
2013-3-9,60,48,36,39,34,29,79,59,38,30.19,29.84,23,3,23,0.00
2013-3-10,67,58,51,53,44,37,95,61,39,29.85,29.60,28,7,33,0.46
2013-3-11,54,43,36,52,38,29,95,83,74,29.90,29.59,18,4,24,0.03
2013-3-12,49,39,32,31,28,23,80,64,38,30.07,29.90,23,4,24,0.00
2013-3-13,37,32,24,26,21,17,83,64,51,30.33,30.07,24,6,24,0.00
2013-3-14,39,29,22,32,26,19,91,86,53,30.33,30.07,7,0,19,0.00
2013-3-15,67,50,29,50,39,26,94,68,44,30.07,29.61,18,2,21,0.01
2013-3-16,66,54,39,50,44,34,86,68,56,29.93,29.57,22,7,22,0.00
2013-3-17,40,37,35,37,35,33,94,92,82,29.99,29.73,11,2,16,1.99
2013-3-18,46,42,36,44,39,33,96,89,75,29.86,29.55,18,3,21,0.78
2013-3-19,48,38,29,34,24,17,80,58,29,30.11,29.86,21,4,23,0.00
2013-3-20,36,31,25,26,19,13,82,62,45,30.12,30.02,28,6,28,0.00
2013-3-21,36,27,21,20,15,11,76,61,42,30.05,29.93,14,2,14,0.00
2013-3-22,28,26,25,21,20,19,79,76,71,29.97,29.95,0,0,0,0.00
2013-3-23,56,51,36,35,32,25,66,49,38,29.94,29.68,11,1,11,0.00
2013-3-24,46,38,32,37,34,30,95,87,52,29.70,29.34,22,3,23,0.33
2013-3-25,36,32,31,31,30,28,96,89,77,30.04,29.55,23,10,25,0.05
2013-3-26,41,35,27,32,27,23,87,74,56,30.26,30.04,16,5,18,0.00
2013-3-27,47,35,25,30,25,22,88,69,40,30.32,30.23,16,1,16,0.00
2013-3-28,56,42,28,35,29,23,87,62,34,30.32,30.19,9,0,9,0.00
2013-3-29,51,45,38,46,40,32,93,83,65,30.20,30.11,16,1,16,0.06
2013-3-30,58,46,33,47,41,32,96,83,57,30.13,29.82,15,2,16,0.22
2013-3-31,48,48,48,46,46,46,93,93,93,29.82,29.80,2,0,4,0.00
2013-4-1,54,36,32,44,28,24,80,72,37,30.10,29.77,8,1,18,0.00
2013-4-2,49,40,27,27,22,15,84,55,26,30.24,30.10,10,1,13,0.00
2013-4-3,40,40,39,30,27,25,67,61,55,30.18,30.15,4,0,5,0.00
2013-4-4,59,45,36,35,27,22,78,53,26,30.15,29.92,9,0,9,0.00
2013-4-5,66,49,33,42,33,25,83,57,28,30.02,29.93,14,2,14,0.00
2013-4-8,74,65,56,56,53,49,86,66,50,29.84,29.75,10,4,33,0.00
2013-4-9,79,70,62,61,58,54,79,67,51,29.91,29.80,12,6,34,0.00
2013-4-10,83,77,65,64,61,59,82,57,50,29.82,29.60,26,4,31,0.00
2013-4-11,74,58,42,63,54,35,95,88,63,29.69,29.50,22,6,29,1.58
2013-4-12,54,44,36,39,34,32,87,69,49,29.93,29.65,21,4,24,0.00
2013-4-13,62,49,34,44,37,30,89,65,38,29.99,29.89,18,2,20,0.00
2013-4-14,77,60,43,50,44,40,89,61,30,29.89,29.66,29,5,31,0.00
2013-4-15,77,65,54,61,55,49,86,72,50,29.87,29.73,16,3,19,0.00
2013-4-16,81,66,58,68,60,54,94,81,59,30.00,29.78,19,2,20,0.68
2013-4-17,84,70,56,71,63,55,96,79,57,30.00,29.72,19,2,19,0.00
2013-4-18,79,70,45,66,61,43,94,74,55,29.72,29.52,28,7,31,1.18
2013-4-19,48,44,37,43,32,27,93,65,48,29.99,29.57,25,6,26,0.50
2013-4-20,56,44,33,37,32,28,90,66,35,30.26,29.99,14,1,16,0.00
2013-4-21,64,49,35,41,33,28,85,58,26,30.36,30.19,13,1,14,0.00
2013-4-22,72,55,39,51,41,34,86,63,33,30.20,29.96,16,1,16,0.00
2013-4-23,71,61,50,58,52,45,91,72,58,29.98,29.72,23,5,27,0.07
2013-4-24,50,44,36,48,39,34,93,84,58,30.19,29.80,19,4,20,0.27
2013-4-25,62,49,36,45,38,34,94,69,40,30.27,30.17,19,3,19,0.01
2013-4-26,63,52,41,47,41,36,87,69,40,30.34,30.18,15,1,15,0.00
2013-4-27,58,54,50,55,51,46,94,88,80,30.24,29.80,13,1,13,0.03
2013-4-28,58,57,55,57,54,52,95,90,83,29.86,29.75,14,1,14,0.03
2013-4-29,73,60,48,56,52,47,96,77,48,29.91,29.79,15,2,16,0.00
2013-4-30,82,67,53,61,55,50,93,69,40,29.90,29.80,16,2,16,0.00
2013-5-1,82,68,54,64,58,52,94,72,40,30.01,29.90,12,1,13,0.00
2013-5-2,77,66,58,62,58,54,95,75,47,30.05,29.93,14,1,18,0.00
2013-5-3,75,66,53,60,57,50,95,76,50,29.93,29.68,22,4,26,0.07
2013-5-4,53,47,45,50,45,44,95,94,91,29.92,29.78,12,0,19,0.64
2013-5-5,56,53,47,55,52,45,96,95,93,29.89,29.75,7,0,9,0.03
2013-5-6,65,57,52,58,54,50,96,90,75,29.84,29.74,12,0,12,0.00
2013-5-7,74,5,53,60,-88,-100,97,7,60,29.91,29.83,11,-916,12,0.00
2013-5-8,79,19,56,61,-60,-100,96,15,44,29.94,29.85,7,-740,8,0.04
2013-5-9,76,10,62,67,-79,-100,86,9,56,29.92,29.80,13,-834,21,0.10
2013-5-10,72,7,67,65,-84,-100,80,8,71,29.86,29.72,8,-893,11,0.00
2013-5-11,-200,0,200,-100,-100,-100,0,0,100,30.02,29.84,0,-993,0,0.00
2013-5-12,-200,0,200,-100,-100,-100,0,0,100,30.10,30.01,0,-994,0,0.00
2013-5-13,-200,0,200,-100,-100,-100,0,0,100,30.14,30.02,0,-994,0,0.00
2013-5-14,-200,0,200,-100,-100,-100,0,0,100,30.02,29.77,0,-994,0,0.00
2013-5-15,-200,0,200,-100,-100,-100,0,0,100,29.84,29.81,0,-981,0,0.00
2013-5-19,89,21,77,71,-58,-100,74,16,57,29.85,29.71,5,1,18,0.00
2013-5-20,85,78,71,70,68,67,86,73,56,29.85,29.71,7,4,23,0.00
2013-5-21,77,67,64,68,64,61,94,90,68,29.82,29.68,10,2,24,1.22
2013-5-22,77,69,65,65,62,58,94,81,54,29.74,29.65,18,2,19,0.07
2013-5-23,68,62,51,62,56,46,95,80,62,30.10,29.74,18,2,18,0.14
2013-5-24,69,54,43,51,45,39,89,72,39,30.27,30.10,8,0,9,0.00
2013-5-25,73,59,44,54,47,43,95,68,35,30.28,30.06,9,0,10,0.00
2013-5-26,78,66,56,62,55,49,81,68,48,30.15,29.99,13,1,15,0.01
2013-5-27,84,73,63,66,61,56,95,67,43,29.99,29.82,22,4,23,0.70
2013-5-28,85,75,64,70,64,57,96,71,51,29.89,29.78,22,4,27,0.01
2013-5-29,84,72,62,65,59,57,86,66,41,29.95,29.86,21,3,23,0.00
2013-5-30,84,74,70,69,67,64,87,78,56,29.92,29.83,25,5,33,0.02
2013-5-31,80,74,70,71,69,66,92,83,69,29.86,29.75,24,4,25,0.10
2013-6-1,77,68,63,71,64,61,95,89,77,29.87,29.66,21,3,25,1.27
2013-6-2,73,67,60,64,61,56,94,82,63,29.90,29.78,9,0,11,0.00
2013-6-3,70,62,53,59,55,51,95,81,58,29.98,29.88,8,0,8,0.00
2013-6-4,78,64,51,63,56,49,96,77,49,30.00,29.89,11,0,12,0.00
2013-6-5,83,70,59,68,62,57,94,77,44,29.92,29.72,9,0,10,0.00
2013-6-6,82,73,66,68,65,62,95,79,52,29.72,29.66,10,0,10,0.02
2013-6-7,75,68,61,67,62,59,94,82,66,29.78,29.67,8,0,11,0.00
2013-6-8,80,69,60,64,60,56,95,75,44,29.90,29.77,8,0,10,0.00
2013-6-9,77,69,61,70,64,59,93,84,62,29.91,29.71,14,1,16,0.04
2013-6-10,78,69,63,68,65,61,95,87,61,29.83,29.69,11,1,14,0.11
2013-6-11,86,75,60,74,67,59,96,77,55,29.90,29.78,15,1,15,0.01
2013-6-12,80,77,74,73,72,71,91,85,80,29.80,29.79,5,0,5,0.00
2013-6-20,87,75,65,70,66,63,95,77,47,30.05,29.97,3,0,11,0.00
2013-6-21,87,78,67,73,69,65,93,76,58,30.05,29.97,4,1,16,0.00
2013-6-22,88,78,70,73,68,65,89,74,50,30.04,29.92,16,2,19,0.00
2013-6-23,82,74,67,74,70,65,95,87,71,30.00,29.91,10,0,10,0.06
2013-6-24,78,72,68,72,68,66,96,89,74,30.04,29.92,15,1,15,1.03
2013-6-25,88,80,71,77,73,70,95,79,61,29.93,29.76,14,2,16,0.00
2013-6-26,88,80,74,76,73,70,93,80,61,29.82,29.58,25,2,25,0.12
2013-6-27,92,81,73,78,72,68,93,77,48,29.73,29.65,16,0,16,0.00
2013-6-28,89,80,70,72,65,56,85,63,39,29.70,29.54,14,1,18,0.00
2013-6-29,83,72,64,67,62,58,93,72,48,29.58,29.50,14,1,15,0.05
2013-6-30,76,69,63,70,65,61,95,87,72,29.72,29.58,9,0,10,0.19
2013-7-1,70,67,64,68,64,62,94,92,90,29.79,29.70,7,0,7,0.20
2013-7-2,76,68,62,69,64,60,96,88,67,29.91,29.77,14,1,14,0.28
2013-7-3,79,70,63,68,64,61,95,83,62,29.99,29.90,8,0,9,0.00
2013-7-4,78,69,62,70,65,60,96,88,71,30.00,29.93,9,0,11,0.00
2013-7-5,79,71,64,71,67,62,96,87,69,30.01,29.92,7,0,7,0.00
2013-7-6,81,71,66,72,67,64,95,86,65,29.99,29.91,10,1,14,0.09
2013-7-7,86,73,64,74,68,63,95,84,55,30.01,29.92,9,1,9,0.00
2013-7-8,87,78,70,75,71,68,93,79,57,30.03,29.93,11,1,12,0.00
2013-7-9,90,82,76,77,74,71,88,77,58,29.98,29.86,12,2,13,0.00
2013-7-10,80,79,78,74,74,72,86,84,80,29.87,29.84,7,1,9,0.00
2013-7-15,87,79,72,74,72,70,93,81,65,30.14,30.03,4,1,13,0.00
2013-7-16,90,79,70,76,72,69,96,80,55,30.20,30.13,3,0,11,0.00
2013-7-17,94,77,72,76,73,70,95,88,52,30.22,30.07,0,0,7,0.00
2013-7-18,92,81,73,80,74,71,95,81,55,30.09,29.92,10,0,10,0.01
2013-7-19,90,81,73,75,72,70,95,77,55,29.93,29.80,14,1,14,0.00
2013-7-20,89,78,70,75,71,67,94,80,55,29.85,29.71,14,2,16,0.13
2013-7-21,86,76,68,75,71,66,96,85,58,29.86,29.75,14,1,14,0.79
2013-7-22,86,77,71,74,72,70,96,84,59,29.76,29.69,13,1,13,0.69
2013-7-23,90,78,69,77,72,66,93,82,60,29.77,29.62,15,2,18,0.40
2013-7-24,79,72,64,68,62,58,93,73,52,29.87,29.74,10,0,10,0.00
2013-8-3,85,75,67,74,70,65,96,85,68,29.96,29.83,1,0,12,0.00
2013-8-4,73,66,62,66,62,59,95,90,62,30.05,29.96,0,0,6,0.00
2013-8-5,69,69,69,66,65,64,88,87,86,29.86,29.83,6,0,6,0.01
2013-8-6,82,74,69,74,70,65,92,86,72,29.85,29.78,10,1,11,0.00
2013-8-18,83,72,64,69,65,62,94,81,51,30.05,29.96,1,0,9,0.00
2013-8-19,84,72,64,71,66,62,96,83,58,30.02,29.93,2,0,9,0.00
2013-8-20,86,71,66,72,68,64,96,91,58,30.02,29.94,2,0,6,0.00
2013-8-21,89,76,66,75,70,65,96,83,52,30.04,29.94,7,0,8,0.00
2013-8-22,89,78,67,76,71,66,96,81,54,30.00,29.90,8,0,8,0.00
2013-8-23,88,76,69,76,71,66,95,84,57,29.99,29.91,7,0,7,0.00
2013-8-24,89,74,64,72,66,59,96,78,37,30.10,29.99,8,0,9,0.00
2013-8-25,87,74,62,76,68,61,96,84,58,30.18,30.08,9,0,9,0.00
2013-8-26,89,78,70,75,72,69,96,82,57,30.14,29.99,12,1,13,0.01
2013-8-27,90,80,73,77,73,70,90,79,59,30.00,29.89,10,1,10,0.00
2013-8-28,92,82,73,74,70,67,89,71,44,29.92,29.86,12,1,12,0.00
2013-8-29,91,80,71,80,74,68,95,81,63,29.90,29.84,6,0,6,0.00
2013-8-30,94,82,71,78,73,70,96,77,46,29.86,29.74,8,0,9,0.00
2013-8-31,94,84,74,78,74,67,93,74,49,29.76,29.63,25,2,25,0.00
2013-9-6,85,72,62,71,66,61,96,83,54,30.08,29.96,3,1,10,0.01
2013-9-7,86,74,64,72,68,63,96,83,55,29.97,29.85,2,1,10,0.00
2013-9-8,81,71,69,74,69,67,96,93,79,29.88,29.82,1,0,7,0.01
2013-9-9,91,80,70,77,72,69,96,79,51,29.89,29.82,9,1,11,0.00
2013-9-10,88,80,75,76,74,72,93,83,59,30.01,29.89,10,1,11,0.00
2013-9-11,93,80,73,78,72,68,94,80,46,30.05,29.93,10,1,10,0.00
2013-9-12,85,70,64,72,66,57,94,86,58,29.94,29.83,4,0,11,0.00
2013-9-13,72,63,53,58,54,50,93,74,48,29.99,29.89,8,0,16,0.00
2013-9-14,66,52,47,53,48,46,95,89,54,30.07,29.98,7,0,8,0.00
2013-9-20,74,71,69,70,68,66,95,90,84,29.86,29.73,2,1,13,1.00
2013-9-21,72,62,54,64,56,52,96,83,59,29.81,29.72,2,1,12,0.06
2013-9-22,74,62,50,57,53,48,97,75,47,29.91,29.81,6,0,8,0.01
2013-9-23,75,60,48,59,53,47,96,79,45,29.96,29.86,11,0,14,0.00
2013-9-24,80,66,54,67,60,52,96,84,53,29.89,29.73,9,0,10,0.01
2013-9-25,81,69,62,69,64,61,96,86,54,29.79,29.70,7,0,9,0.00
2013-9-26,83,67,58,68,60,56,97,82,43,29.93,29.77,7,0,7,0.01
2013-9-27,81,63,53,64,56,52,96,81,40,30.04,29.93,10,0,10,0.00
2013-9-30,72,66,63,65,64,62,96,90,77,29.91,29.85,3,1,16,0.00
2013-10-1,80,71,64,68,66,63,95,85,67,29.96,29.88,4,1,13,0.00
2013-10-2,80,71,68,72,69,67,96,92,76,29.99,29.91,2,0,13,0.41
2013-10-3,83,74,68,70,67,65,97,82,55,29.96,29.85,5,2,18,0.04
2013-10-4,84,75,66,71,68,64,95,81,61,29.94,29.86,2,1,13,0.00
2013-10-5,77,72,68,73,69,66,96,92,82,29.91,29.75,4,1,19,1.87
2013-10-6,68,60,47,66,53,43,96,80,50,29.83,29.68,3,1,18,1.15
2013-10-7,58,51,48,48,45,44,89,80,67,29.97,29.81,1,0,12,0.00
2013-10-21,64,54,47,49,46,42,89,76,56,29.94,29.85,4,2,14,0.00
2013-10-22,55,46,34,45,38,32,95,75,43,29.98,29.75,4,1,21,0.00
2013-10-23,50,42,39,41,36,30,84,78,45,30.03,29.77,5,0,21,0.00
2013-10-24,46,41,30,36,31,23,88,68,43,30.29,30.02,18,1,18,0.00
2013-10-25,49,34,27,33,27,24,92,77,41,30.43,30.29,7,0,8,0.00
2013-11-4,59,50,40,48,42,37,94,77,53,30.20,30.14,5,1,18,0.00
2013-11-5,65,56,49,49,46,43,95,70,51,30.26,30.04,6,2,18,0.00
2013-11-6,60,46,42,56,43,39,94,91,61,30.11,29.91,15,2,20,0.00
2013-11-7,52,42,34,39,33,25,92,73,37,30.30,30.11,10,0,12,0.00
2013-11-8,56,42,31,42,32,27,96,70,34,30.32,30.10,10,1,13,0.00
2013-11-9,46,42,40,36,31,28,76,65,55,30.10,30.06,16,3,16,0.00
2013-11-12,39,33,25,36,25,20,89,74,54,30.61,30.25,6,3,19,0.00
2013-11-13,42,30,20,24,20,18,91,69,38,30.63,30.32,3,1,11,0.26
2013-11-14,55,46,30,25,22,18,75,39,24,30.30,30.04,21,3,21,0.24
2013-11-15,51,45,34,45,35,23,92,69,43,30.06,29.95,12,2,13,0.00
2013-11-16,53,51,47,50,49,45,95,92,90,29.95,29.91,13,3,18,0.00
2013-11-17,71,54,46,65,46,34,96,77,37,29.83,29.42,9,2,32,1.71
2013-11-18,57,47,34,43,36,29,92,69,38,30.19,29.83,6,0,7,0.00
2013-11-19,46,36,30,34,30,27,91,77,53,30.26,30.16,6,0,7,0.00
2013-11-20,55,41,28,38,33,26,93,74,42,30.17,30.04,12,1,14,0.00
2013-11-21,60,52,45,52,45,35,96,78,57,30.14,30.06,18,2,19,0.32
2013-11-22,54,47,39,53,44,34,96,90,82,30.34,30.07,15,3,18,0.03
2013-11-23,41,32,21,34,23,11,89,70,48,30.59,30.33,19,4,22,0.00
2013-11-24,31,24,17,18,13,10,76,65,45,30.67,30.41,7,0,10,0.00
2013-11-25,38,32,26,31,21,15,87,64,48,30.41,30.10,13,1,14,0.00
2013-11-26,38,34,27,31,27,14,89,75,59,30.11,29.91,18,2,24,0.01
2013-11-27,28,22,17,15,11,7,80,62,42,30.29,30.03,18,4,20,0.00
2013-11-28,43,28,16,23,17,11,86,64,37,30.39,30.22,19,2,27,0.00
2013-11-29,47,32,22,28,24,19,90,74,45,30.53,30.35,7,0,8,0.00
2013-11-30,56,42,29,32,26,22,87,56,27,30.35,30.07,18,3,19,0.00
2013-12-1,57,46,38,41,35,26,88,67,49,30.07,29.83,11,0,11,0.00
2013-12-2,56,44,34,45,39,32,95,82,62,29.83,29.63,11,0,12,0.00
2013-12-3,59,50,42,53,46,40,99,89,70,29.70,29.62,12,1,14,0.00
2013-12-4,68,61,46,61,56,45,98,84,69,29.66,29.52,28,2,28,0.00
2013-12-5,66,37,25,60,33,23,92,85,75,30.16,29.66,16,2,20,0.28
2013-12-6,25,23,20,23,20,15,92,90,82,30.42,30.11,0,0,0,0.00
2013-12-7,20,15,5,15,10,1,84,80,77,30.59,30.37,4,0,8,0.00
2013-12-8,32,27,20,31,24,15,95,89,81,30.37,29.94,4,0,5,0.00
2013-12-9,30,27,22,28,20,16,93,78,62,30.20,30.00,5,0,6,0.03
2013-12-10,35,24,15,18,16,12,89,75,44,30.29,30.16,12,1,16,0.06
2013-12-11,19,17,15,17,14,12,91,89,88,30.29,30.28,1,0,2,0.00
2013-12-16,46,38,32,34,32,28,88,79,62,30.02,29.93,4,1,13,0.09
2013-12-17,38,32,28,33,27,25,91,83,71,30.17,29.97,3,1,16,0.00
2013-12-18,46,40,22,29,26,18,86,57,38,30.22,29.95,8,3,19,0.00
2013-12-19,59,51,42,48,41,29,77,69,58,29.97,29.80,25,4,25,0.00
2013-12-20,62,59,54,59,54,48,93,84,72,29.80,29.68,23,5,24,0.03
2013-12-21,54,44,40,53,43,39,98,96,93,29.71,29.37,18,1,18,3.21
2013-12-22,44,39,33,42,37,30,97,93,84,30.11,29.48,16,2,16,0.02
2013-12-23,34,28,24,30,22,16,87,78,69,30.41,30.11,16,2,18,0.00
2013-12-24,24,18,13,17,9,4,86,69,48,30.56,30.35,16,1,16,0.00
2013-12-25,36,29,18,27,20,13,86,68,56,30.35,30.18,14,1,15,0.00
2013-12-26,42,34,25,29,26,22,92,73,49,30.33,30.19,9,1,11,0.00
2013-12-27,50,38,27,34,30,23,91,73,53,30.33,30.22,12,2,12,0.00
2013-12-28,47,40,31,35,32,28,91,74,56,30.22,29.87,12,2,12,0.00
2013-12-29,46,36,25,39,31,19,93,85,69,30.12,29.79,23,4,24,0.12
2013-12-30,26,22,17,20,14,11,82,72,57,30.26,30.11,11,1,12,0.00
2013-12-31,38,32,24,27,20,15,73,63,51,30.35,30.17,16,2,16,0.00
2014-1-1,45,38,30,36,29,26,91,72,54,30.18,29.87,15,1,16,0.07
2014-1-2,38,21,15,36,15,10,94,78,71,30.36,29.83,22,6,24,0.05